Location: Unspecified
(0.0000°N, 0.0000°E)
Time: 16:40:27
(UTC+00:00)

A-11 Canister half - Pass Details

Date: 22 December 2018
Orbit: 1516 x 1684 km, 47.2° (Epoch: 17 June)

Event Time Altitude Azimuth Distance (km) Brightness Sun altitude
Rises 21:23:53 0° 311° (NW) 4,916 11.8 -45.7°
Reaches altitude 10° 21:27:06 10° 307° (NW) 3,936 11.2 -46.4°
Enters shadow 21:31:35 30° 296° (WNW) 2,689 10.3 -47.3°
Exits shadow 21:47:14 - 153° (SSE) 4,017 11.2 -50.4°
Sets 21:50:03 0° 149° (SSE) 4,875 11.7 -50.9°
